Time,TemperatureF,DewpointF,PressureIn,WindDirection,WindDirectionDegrees,WindSpeedMPH,WindSpeedGustMPH,Humidity,HourlyPrecipIn,Conditions,Clouds,dailyrainin,SoftwareType,DateUTC
2013-03-08 00:01:00,57.0,56.0,29.78,SSW,195,3.0,6.0,97,0.00,,,0.27,,2013-03-07 23:01:00,
2013-03-08 00:11:00,57.0,56.0,29.78,SSW,195,3.0,6.0,97,0.00,,,0.27,,2013-03-07 23:11:00,
2013-03-08 00:21:00,57.0,56.0,29.77,South,178,0.0,5.0,97,0.00,,,0.27,,2013-03-07 23:21:00,
2013-03-08 00:32:00,57.0,56.0,29.78,South,173,2.0,4.0,97,0.00,,,0.27,,2013-03-07 23:32:00,
2013-03-08 00:41:00,57.0,56.0,29.78,South,173,2.0,4.0,97,0.00,,,0.27,,2013-03-07 23:41:00,
2013-03-08 00:52:00,57.0,56.0,29.78,South,173,2.0,4.0,97,0.00,,,0.27,,2013-03-07 23:52:00,
2013-03-08 01:02:00,57.0,56.0,29.78,South,173,2.0,4.0,97,0.00,,,0.27,,2013-03-08 00:02:00,
2013-03-08 01:11:00,57.0,56.0,29.78,South,173,2.0,4.0,97,0.00,,,0.27,,2013-03-08 00:11:00,
2013-03-08 01:22:00,57.0,56.0,29.78,SSW,192,4.0,6.0,97,0.00,,,0.27,,2013-03-08 00:22:00,
2013-03-08 01:33:00,56.0,55.0,29.78,SSW,205,3.0,5.0,97,0.00,,,0.27,,2013-03-08 00:33:00,
2013-03-08 01:42:00,56.0,55.0,29.78,SSW,205,3.0,5.0,97,0.00,,,0.27,,2013-03-08 00:42:00,
2013-03-08 01:52:00,56.0,55.0,29.78,SSW,205,2.0,3.0,97,0.00,,,0.27,,2013-03-08 00:52:00,
2013-03-08 02:01:00,56.0,55.0,29.78,SSW,205,0.0,3.0,97,0.00,,,0.27,,2013-03-08 01:01:00,
2013-03-08 02:11:00,56.0,55.0,29.78,SSW,205,0.0,3.0,97,0.00,,,0.27,,2013-03-08 01:11:00,
2013-03-08 02:21:00,56.0,55.0,29.78,SSW,205,0.0,2.0,97,0.00,,,0.27,,2013-03-08 01:21:00,
2013-03-08 02:32:00,56.0,55.0,29.78,SSW,205,0.0,0.0,97,0.00,,,0.27,,2013-03-08 01:32:00,
2013-03-08 02:41:00,56.0,55.0,29.78,SSW,205,0.0,0.0,97,0.00,,,0.27,,2013-03-08 01:41:00,
2013-03-08 02:51:00,56.0,55.0,29.78,SSW,205,0.0,0.0,97,0.00,,,0.27,,2013-03-08 01:51:00,
2013-03-08 03:01:00,56.0,55.0,29.77,SSW,205,0.0,3.0,97,0.00,,,0.27,,2013-03-08 02:01:00,
2013-03-08 03:21:00,56.0,55.0,29.76,SSW,205,0.0,3.0,97,0.00,,,0.27,,2013-03-08 02:21:00,
2013-03-08 03:31:00,56.0,55.0,29.76,SSW,205,0.0,3.0,97,0.00,,,0.27,,2013-03-08 02:31:00,
2013-03-08 03:41:00,56.0,55.0,29.76,SSW,205,0.0,3.0,97,0.00,,,0.27,,2013-03-08 02:41:00,
2013-03-08 03:52:00,56.0,55.0,29.76,SSW,200,0.0,5.0,97,0.00,,,0.27,,2013-03-08 02:52:00,
2013-03-08 04:01:00,56.0,55.0,29.76,SSE,161,4.0,6.0,97,0.00,,,0.27,,2013-03-08 03:01:00,
2013-03-08 04:11:00,56.0,55.0,29.76,SSE,161,4.0,6.0,97,0.00,,,0.27,,2013-03-08 03:11:00,
2013-03-08 04:21:00,56.0,55.0,29.76,SSE,159,5.0,6.0,97,0.00,,,0.27,,2013-03-08 03:21:00,
2013-03-08 04:32:00,56.0,55.0,29.75,SSE,167,1.0,4.0,97,0.00,,,0.27,,2013-03-08 03:32:00,
2013-03-08 04:41:00,56.0,55.0,29.75,SSE,167,1.0,4.0,97,0.00,,,0.27,,2013-03-08 03:41:00,
2013-03-08 05:01:00,56.0,55.0,29.75,SSE,165,1.0,4.0,97,0.00,,,0.27,,2013-03-08 04:01:00,
2013-03-08 05:11:00,56.0,55.0,29.75,SSE,165,1.0,4.0,97,0.00,,,0.27,,2013-03-08 04:11:00,
2013-03-08 05:21:00,56.0,55.0,29.75,SSE,165,0.0,4.0,97,0.00,,,0.27,,2013-03-08 04:21:00,
2013-03-08 05:31:00,56.0,55.0,29.75,SSE,165,0.0,4.0,97,0.00,,,0.27,,2013-03-08 04:31:00,
2013-03-08 05:42:00,56.0,55.0,29.75,SSE,165,0.0,4.0,97,0.00,,,0.27,,2013-03-08 04:42:00,
2013-03-08 05:51:00,56.0,55.0,29.75,SSE,165,0.0,4.0,97,0.00,,,0.27,,2013-03-08 04:51:00,
2013-03-08 06:02:00,56.0,55.0,29.76,South,190,3.0,10.0,97,0.00,,,0.27,,2013-03-08 05:02:00,
2013-03-08 06:12:00,56.0,55.0,29.76,South,190,3.0,10.0,97,0.00,,,0.27,,2013-03-08 05:12:00,
2013-03-08 06:22:00,56.0,55.0,29.76,South,190,3.0,10.0,97,0.00,,,0.27,,2013-03-08 05:22:00,
2013-03-08 06:32:00,55.0,54.0,29.76,SSW,205,4.0,10.0,97,0.00,,,0.27,,2013-03-08 05:32:00,
2013-03-08 06:42:00,55.0,54.0,29.76,SSW,205,4.0,10.0,97,0.00,,,0.27,,2013-03-08 05:42:00,
2013-03-08 06:52:00,55.0,54.0,29.76,SSW,205,4.0,10.0,97,0.00,,,0.27,,2013-03-08 05:52:00,
2013-03-08 07:01:00,56.0,55.0,29.77,South,186,7.0,10.0,97,0.00,,,0.26,,2013-03-08 06:01:00,
2013-03-08 07:11:00,56.0,55.0,29.77,South,186,7.0,10.0,97,0.00,,,0.26,,2013-03-08 06:11:00,
2013-03-08 07:21:00,56.0,55.0,29.76,South,179,9.0,11.0,96,0.00,,,0.24,,2013-03-08 06:21:00,
2013-03-08 07:31:00,56.0,55.0,29.77,South,169,4.0,10.0,95,0.00,,,0.12,,2013-03-08 06:31:00,
2013-03-08 07:41:00,56.0,55.0,29.77,South,169,4.0,10.0,95,0.00,,,0.12,,2013-03-08 06:41:00,
2013-03-08 07:51:00,56.0,54.0,29.77,SSW,195,3.0,11.0,94,0.00,,,0.12,,2013-03-08 06:51:00,
2013-03-08 08:01:00,56.0,54.0,29.77,South,188,10.0,11.0,93,0.00,,,0.12,,2013-03-08 07:01:00,
2013-03-08 08:11:00,56.0,54.0,29.77,South,188,10.0,11.0,93,0.00,,,0.12,,2013-03-08 07:11:00,
2013-03-08 08:21:00,56.0,54.0,29.77,South,178,5.0,12.0,93,0.00,,,0.12,,2013-03-08 07:21:00,
2013-03-08 08:31:00,56.0,54.0,29.77,South,189,8.0,8.0,93,0.00,,,0.12,,2013-03-08 07:31:00,
2013-03-08 08:41:00,56.0,54.0,29.77,South,189,8.0,8.0,93,0.00,,,0.12,,2013-03-08 07:41:00,
2013-03-08 08:51:00,57.0,55.0,29.78,SSW,196,5.0,11.0,93,0.00,,,0.12,,2013-03-08 07:51:00,
2013-03-08 09:01:00,58.0,56.0,29.77,South,173,2.0,9.0,92,0.00,,,0.12,,2013-03-08 08:01:00,
2013-03-08 09:11:00,58.0,56.0,29.77,South,173,2.0,9.0,92,0.00,,,0.12,,2013-03-08 08:11:00,
2013-03-08 09:21:00,58.0,56.0,29.78,South,182,4.0,10.0,92,0.00,,,0.12,,2013-03-08 08:21:00,
2013-03-08 09:31:00,58.0,55.0,29.77,SE,129,7.0,10.0,91,0.00,,,0.12,,2013-03-08 08:31:00,
2013-03-08 09:41:00,58.0,55.0,29.77,SE,129,7.0,10.0,91,0.00,,,0.12,,2013-03-08 08:41:00,
2013-03-08 09:52:00,58.0,55.0,29.78,SSE,151,10.0,17.0,90,0.00,,,0.12,,2013-03-08 08:52:00,
2013-03-08 10:02:00,58.0,55.0,29.78,SSE,150,8.0,10.0,90,0.00,,,0.12,,2013-03-08 09:02:00,
2013-03-08 10:11:00,58.0,55.0,29.78,SSE,150,8.0,10.0,90,0.00,,,0.12,,2013-03-08 09:11:00,
2013-03-08 10:21:00,58.0,55.0,29.78,SE,146,6.0,16.0,90,0.00,,,0.12,,2013-03-08 09:21:00,
2013-03-08 10:31:00,58.0,55.0,29.78,SE,146,6.0,16.0,90,0.00,,,0.12,,2013-03-08 09:31:00,
2013-03-08 10:41:00,58.0,55.0,29.78,SE,146,6.0,16.0,90,0.00,,,0.12,,2013-03-08 09:41:00,
2013-03-08 10:51:00,57.0,54.0,29.78,South,171,7.0,12.0,91,0.00,,,0.12,,2013-03-08 09:51:00,
2013-03-08 11:01:00,57.0,54.0,29.78,SSE,166,8.0,11.0,91,0.00,,,0.12,,2013-03-08 10:01:00,
2013-03-08 11:11:00,57.0,54.0,29.78,SSE,166,8.0,11.0,91,0.00,,,0.12,,2013-03-08 10:11:00,
2013-03-08 11:21:00,57.0,54.0,29.78,SSE,150,7.0,16.0,91,0.00,,,0.12,,2013-03-08 10:21:00,
2013-03-08 11:31:00,57.0,55.0,29.78,SSE,164,9.0,14.0,92,0.00,,,0.11,,2013-03-08 10:31:00,
2013-03-08 11:41:00,57.0,55.0,29.78,SSE,164,9.0,14.0,92,0.00,,,0.11,,2013-03-08 10:41:00,
2013-03-08 11:51:00,57.0,55.0,29.78,SSE,164,9.0,14.0,92,0.00,,,0.11,,2013-03-08 10:51:00,
2013-03-08 12:01:00,57.0,55.0,29.77,SSE,151,9.0,17.0,93,0.00,,,0.11,,2013-03-08 11:01:00,
2013-03-08 12:11:00,57.0,55.0,29.77,SSE,151,9.0,17.0,93,0.00,,,0.11,,2013-03-08 11:11:00,
2013-03-08 12:21:00,56.0,54.0,29.76,SSE,155,5.0,14.0,93,0.00,,,0.11,,2013-03-08 11:21:00,
2013-03-08 12:32:00,56.0,55.0,29.75,SE,126,10.0,18.0,95,0.00,,,0.11,,2013-03-08 11:32:00,
2013-03-08 12:41:00,56.0,55.0,29.75,SE,126,10.0,18.0,95,0.00,,,0.11,,2013-03-08 11:41:00,
2013-03-08 12:52:00,56.0,55.0,29.75,SSE,161,8.0,16.0,95,0.00,,,0.11,,2013-03-08 11:52:00,
2013-03-08 13:01:00,56.0,55.0,29.74,SSE,159,8.0,16.0,95,0.00,,,0.11,,2013-03-08 12:01:00,
2013-03-08 13:11:00,56.0,55.0,29.74,SSE,159,8.0,16.0,95,0.00,,,0.11,,2013-03-08 12:11:00,
2013-03-08 13:22:00,57.0,56.0,29.74,SSE,152,9.0,15.0,95,0.00,,,0.11,,2013-03-08 12:22:00,
2013-03-08 13:32:00,57.0,56.0,29.73,SE,125,10.0,15.0,95,0.00,,,0.11,,2013-03-08 12:32:00,
2013-03-08 13:42:00,57.0,56.0,29.73,SE,125,10.0,15.0,95,0.00,,,0.11,,2013-03-08 12:42:00,
2013-03-08 13:52:00,57.0,56.0,29.73,SE,125,10.0,15.0,95,0.00,,,0.11,,2013-03-08 12:52:00,
2013-03-08 14:01:00,57.0,56.0,29.71,SE,139,11.0,18.0,95,0.00,,,0.11,,2013-03-08 13:01:00,
2013-03-08 14:11:00,57.0,56.0,29.71,SE,139,11.0,18.0,95,0.00,,,0.11,,2013-03-08 13:11:00,
2013-03-08 14:21:00,57.0,56.0,29.71,SE,139,11.0,18.0,95,0.00,,,0.11,,2013-03-08 13:21:00,
2013-03-08 14:32:00,57.0,56.0,29.70,SE,126,7.0,16.0,95,0.00,,,0.10,,2013-03-08 13:32:00,
2013-03-08 14:42:00,57.0,56.0,29.70,SE,126,7.0,16.0,95,0.00,,,0.10,,2013-03-08 13:42:00,
2013-03-08 14:52:00,57.0,56.0,29.70,South,182,10.0,16.0,95,0.01,,,0.07,,2013-03-08 13:52:00,
2013-03-08 15:02:00,57.0,56.0,29.72,South,187,6.0,17.0,96,0.29,,,0.29,,2013-03-08 14:02:00,
2013-03-08 15:11:00,57.0,56.0,29.72,South,187,6.0,17.0,96,0.29,,,0.29,,2013-03-08 14:11:00,
2013-03-08 15:21:00,56.0,55.0,29.71,SSE,155,6.0,17.0,96,0.33,,,0.33,,2013-03-08 14:21:00,
2013-03-08 15:32:00,56.0,55.0,29.69,SSE,150,8.0,13.0,96,0.39,,,0.39,,2013-03-08 14:32:00,
2013-03-08 15:41:00,56.0,55.0,29.69,SSE,150,8.0,13.0,96,0.39,,,0.39,,2013-03-08 14:41:00,
2013-03-08 15:52:00,56.0,55.0,29.69,SSE,150,8.0,13.0,96,0.39,,,0.39,,2013-03-08 14:52:00,
2013-03-08 16:02:00,56.0,55.0,29.65,SE,141,13.0,19.0,97,0.42,,,0.43,,2013-03-08 15:02:00,
2013-03-08 16:11:00,57.0,56.0,29.68,South,175,8.0,14.0,96,0.13,,,0.43,,2013-03-08 15:11:00,
2013-03-08 16:21:00,57.0,56.0,29.68,South,175,8.0,14.0,96,0.13,,,0.43,,2013-03-08 15:21:00,
2013-03-08 16:31:00,57.0,56.0,29.69,SSW,196,7.0,14.0,97,0.07,,,0.43,,2013-03-08 15:31:00,
2013-03-08 16:42:00,57.0,56.0,29.69,SSW,196,7.0,14.0,97,0.07,,,0.43,,2013-03-08 15:42:00,
2013-03-08 16:52:00,57.0,56.0,29.68,SSE,160,8.0,15.0,97,0.04,,,0.43,,2013-03-08 15:52:00,
2013-03-08 17:01:00,57.0,56.0,29.68,SSE,167,4.0,16.0,97,0.01,,,0.43,,2013-03-08 16:01:00,
2013-03-08 17:11:00,57.0,56.0,29.68,SSE,167,4.0,16.0,97,0.01,,,0.43,,2013-03-08 16:11:00,
2013-03-08 17:21:00,57.0,56.0,29.68,SSE,167,4.0,16.0,97,0.01,,,0.43,,2013-03-08 16:21:00,
2013-03-08 17:31:00,57.0,56.0,29.68,SSE,167,4.0,16.0,97,0.01,,,0.43,,2013-03-08 16:31:00,
2013-03-08 18:02:00,57.0,56.0,29.69,SSW,195,4.0,10.0,96,0.00,,,0.43,,2013-03-08 17:02:00,
2013-03-08 18:11:00,57.0,56.0,29.69,SSW,195,4.0,10.0,96,0.00,,,0.43,,2013-03-08 17:11:00,
2013-03-08 18:21:00,57.0,56.0,29.69,SW,222,7.0,14.0,96,0.00,,,0.43,,2013-03-08 17:21:00,
2013-03-08 18:31:00,57.0,56.0,29.70,SSW,202,6.0,9.0,96,0.00,,,0.43,,2013-03-08 17:31:00,
2013-03-08 18:41:00,57.0,56.0,29.70,SSW,202,6.0,9.0,96,0.00,,,0.43,,2013-03-08 17:41:00,
2013-03-08 18:52:00,57.0,56.0,29.70,SSW,202,6.0,9.0,96,0.00,,,0.43,,2013-03-08 17:52:00,
2013-03-08 19:01:00,57.0,56.0,29.70,SW,235,4.0,6.0,97,0.00,,,0.43,,2013-03-08 18:01:00,
2013-03-08 19:11:00,57.0,56.0,29.70,SW,235,4.0,6.0,97,0.00,,,0.43,,2013-03-08 18:11:00,
2013-03-08 19:21:00,57.0,56.0,29.70,SSW,196,4.0,9.0,97,0.00,,,0.43,,2013-03-08 18:21:00,
2013-03-08 19:31:00,56.0,55.0,29.70,SSW,200,9.0,9.0,97,0.00,,,0.43,,2013-03-08 18:31:00,
2013-03-08 19:42:00,56.0,55.0,29.70,SSW,200,9.0,9.0,97,0.00,,,0.43,,2013-03-08 18:42:00,
2013-03-08 19:51:00,56.0,55.0,29.70,SSW,200,9.0,9.0,97,0.00,,,0.43,,2013-03-08 18:51:00,
2013-03-08 20:01:00,56.0,55.0,29.70,SSW,207,1.0,8.0,97,0.00,,,0.43,,2013-03-08 19:01:00,
2013-03-08 20:11:00,56.0,55.0,29.70,SSW,207,1.0,8.0,97,0.00,,,0.43,,2013-03-08 19:11:00,
2013-03-08 20:21:00,57.0,56.0,29.70,South,190,4.0,7.0,97,0.00,,,0.43,,2013-03-08 19:21:00,
2013-03-08 20:31:00,57.0,56.0,29.70,SW,221,3.0,9.0,97,0.00,,,0.43,,2013-03-08 19:31:00,
2013-03-08 20:41:00,57.0,56.0,29.70,SW,221,3.0,9.0,97,0.00,,,0.43,,2013-03-08 19:41:00,
2013-03-08 20:51:00,57.0,56.0,29.70,SSW,198,4.0,8.0,98,0.00,,,0.43,,2013-03-08 19:51:00,
2013-03-08 21:01:00,57.0,56.0,29.70,SSW,193,3.0,6.0,98,0.00,,,0.43,,2013-03-08 20:01:00,
2013-03-08 21:11:00,57.0,56.0,29.70,SSW,193,3.0,6.0,98,0.00,,,0.43,,2013-03-08 20:11:00,
2013-03-08 21:21:00,57.0,56.0,29.70,SSW,193,3.0,6.0,98,0.00,,,0.43,,2013-03-08 20:21:00,
2013-03-08 21:31:00,57.0,56.0,29.71,WSW,251,3.0,6.0,98,0.00,,,0.43,,2013-03-08 20:31:00,
2013-03-08 21:41:00,57.0,56.0,29.71,WSW,251,3.0,6.0,98,0.00,,,0.43,,2013-03-08 20:41:00,
2013-03-08 21:53:00,57.0,56.0,29.71,WSW,251,3.0,6.0,98,0.00,,,0.43,,2013-03-08 20:53:00,
2013-03-08 22:01:00,57.0,56.0,29.71,West,267,3.0,10.0,98,0.05,,,0.48,,2013-03-08 21:01:00,
2013-03-08 22:11:00,57.0,56.0,29.71,West,267,3.0,10.0,98,0.05,,,0.48,,2013-03-08 21:11:00,
2013-03-08 22:21:00,57.0,56.0,29.71,WSW,254,10.0,13.0,98,0.05,,,0.48,,2013-03-08 21:21:00,
2013-03-08 22:32:00,57.0,56.0,29.71,WNW,284,11.0,11.0,98,0.05,,,0.48,,2013-03-08 21:32:00,
2013-03-08 22:41:00,57.0,56.0,29.71,WNW,284,11.0,11.0,98,0.05,,,0.48,,2013-03-08 21:41:00,
2013-03-08 22:51:00,57.0,56.0,29.71,NW,314,3.0,10.0,97,0.04,,,0.48,,2013-03-08 21:51:00,
2013-03-08 23:01:00,56.0,55.0,29.72,WNW,298,7.0,9.0,98,0.00,,,0.48,,2013-03-08 22:01:00,
2013-03-08 23:11:00,56.0,55.0,29.72,WNW,298,7.0,9.0,98,0.00,,,0.48,,2013-03-08 22:11:00,
2013-03-08 23:21:00,56.0,55.0,29.72,NW,313,3.0,8.0,97,0.00,,,0.48,,2013-03-08 22:21:00,
2013-03-08 23:32:00,56.0,55.0,29.72,NW,311,4.0,6.0,97,0.00,,,0.48,,2013-03-08 22:32:00,
2013-03-08 23:41:00,56.0,55.0,29.72,NW,311,4.0,6.0,97,0.00,,,0.48,,2013-03-08 22:41:00,
2013-03-08 23:52:00,56.0,55.0,29.71,NW,311,3.0,4.0,97,0.00,,,0.48,,2013-03-08 22:52:00,